Terminal Aerodrome Forecast
Issued by NWS Cleveland, OH

Home | Current Version | Previous Version | Graphics & Text | Print | Product List | Glossary On
Versions: 1 2 3 4 5 6 7 8 9 10 11 12 13 14 15 16 17 18 19 20 21 22 23 24 25
770
FTUS41 KCLE 160302 AAB
TAFCLE
TAF AMD
KCLE 160302Z 1603/1706 23010KT P6SM OVC050
      TEMPO 1610/1614 3SM -SHSN OVC025
     FM161400 23012G20KT P6SM OVC035
     FM162000 22008KT P6SM BKN070
     FM170300 17005KT P6SM SCT070=

USA.gov is the U.S. government's official web portal to all federal, state and local government web resources and services.